YAOGAN 9B

Satellite information

Favourite Embed

Satellite Type and Status

PAYLOADIN ORBIT

Key statistics

Satellite YAOGAN 9B at a glance.

Uptime

5604

Days in orbit

Revolutions

≈ 13.5

Per day

Orbit

LEO

Low Earth Orbit

Inclination

63.4

Latest

Satellite identification and parameters

Extended collection of information and parameters for YAOGAN 9B.

Object identification

Identified? True

Debris? False

Object name: YAOGAN 9B

International designator: 2010-009B

Object number (NORAD): 36414

Object ID (CCSDS): 36414

Country: PEOPLES REPUBLIC OF CHINA (PRC)

Current information (Y/N): Y

RCS size: LARGE

Orbital parameters

Period: 107.015 minutes

Inclination: 63.3687 deg

SMA: 7466.592 km

Apoapsis: 1468.395 km

Periapsis: 708.52 km

RAAN: 168.789 deg

Eccentricy: 0.050885

Argument of periapsis: 18.2982 deg

Mean anomaly: 343.5629 deg

Mean motion: 13.45609704 rev/day

Mean motion (dot): 0.00000028 rev/day2

B* drag term: 0.000091444 1/REarth

Two-line elements (TLE)

Creation date: July 8, 2025, 2:27 a.m.

Reference frame: TEME

Reference center: EARTH

Epoch: July 7, 2025, 5:45 p.m. UTC

TLE line 0: 0 YAOGAN 9B

TLE line 1: 1 36414U 10009B 25188.73968074 .00000028 00000-0 91444-4 0 9992

TLE line 2: 2 36414 63.3687 168.7890 0508850 18.2982 343.5629 13.45609704753396

Live tracking on map

Real-time ground track for satellite YAOGAN 9B.

In-orbit conjunctions

There are no conjunctions computed for YAOGAN 9B, at the moment. Check back to stay up to date, as we update our databases every day.

Go to all conjunctions

Associated space launch

YAOGAN 9B was lifted into orbit during the mission ‘Long March 4C | Yaogan-9’, on board a Long March 4C space rocket.

The launch took place on March 5, 2010, 4:55 a.m. from Launch Area 4 (SLS-2 / 603).

For more information about the launch, click the button.

Launch to space Long March 4C | Yaogan-9
Long March 4C | Yaogan-9

Agency: N/A

Status: Launch Successful

Launch date: March 5, 2010, 4:55 a.m. UTC

Rocket: Long March 4C

Launch pad: Launch Area 4 (SLS-2 / 603)

Location: Jiuquan Satellite Launch Center, People's Republic of China

...

Latest news about this satellite

There are no fresh news available about this satellite. Check back as we update our databases every day.


Newsletter sign-up

Weekly statistics, charts and insights to help you stay on top of the space industry.